User: anonymous   Login
Location: Unspecified
(0.0000°N, 0.0000°E)
Time: 19:22:22
(UTC+00:00)
Language:

NAVSTAR 65 (USA 213) - Orbit

View from above orbital plane
View from above orbital plane
View from above satellite
View from above satellite

Ground track
Ground track

The orbit data is extracted from the following two-line orbital elements,

1 36585U 10022A   18143.83944007 -.00000057 +00000-0 +00000-0 0  9997
2 36585 055.8256 327.0981 0073176 048.0391 300.3919 02.00567351058499
Epoch (UTC): 23 May 2018 20:08:47
Eccentricity: 0.0073176
inclination: 55.8256°
perigee height: 19987 km
apogee height: 20376 km
right ascension of ascending node: 327.0981°
argument of perigee: 48.0391°
revolutions per day: 2.00567351
mean anomaly at epoch: 300.3919°
orbit number at epoch: 5849

The dashed part of the orbit path shows where the satellite is in the earth's shadow,  

DLR